FENGYUN 1C DEB, 32184

Orbit data source: Space-Track

FENGYUN 1C DEB, 32184 is space debris in SSO originally from a launch on Mon, 10 May 1999 UTC launched from the Taiyaun Space Center, China (TSC). Fengyun 1C debris stems from the Chinese weather satellite Fengyun-1C, which was intentionally destroyed by a Chinese anti-satellite missile in 2007. This event dramatically increased the amount of space debris, with thousands of trackable fragments posing hazards to satellites and human spaceflight. The Fengyun 1C debris cloud has become a focal point in discussions about space sustainability and the need for international regulations to prevent the creation of new debris.

Loading next visibility...
Identifier
32184, 1999-025CUE
Orbit
SSO
Country
Flag of CNCN / PRC
Related business
Manufacturer
Unknown
Mission
Spacecraft
Bus & Motor
Unknown
Mass
Unknown
Launch date (UTC)
1999-05-10 (27 years ago)
Launch vehicle
Unknown
Launch site
Taiyaun Space Center, China (TSC)
Object type
Payload
Rocket body
Debris
Shape & HBR
Unknown shape, 0.1 m
Radar Cross Section
Small (<0.1 m²)

Expand to show TLE details & history
Last TLE update: 5 days ago

TLE from 5 days ago
0 FENGYUN 1C DEB
1 32184U 99025CUE 25307.12555681  .00076834  00000-0  19398-2 0  9993
2 32184  98.1186  82.1244 0081098 130.4013 230.4343 15.36169843977943
Epoch: 2025-11-03T03:00Z
TLE epoch observation values (Epoch: 2025-11-03T03:00:48.108Z)
Latitude
-0.00001°
Longitude
-5.70747°
Altitude
496.122 km
Speed
7.597 km/s
True Right ascension
05h 28m 29s
True Declination
0° 00' 00"
Sunlit
Object was in full shadow at epoch
Visualization orbit readout
Latitude
Unknown
Longitude
Unknown
Altitude
Unknown
Speed
Unknown
Apparent Right ascension
Unknown
Apparent Declination
Unknown
Sunlit
N/A
Visualization observer readout
Local Sidereal Time
18:54:58
Azimuth
Unknown
Elevation
Unknown
Doppler factor
Unknown
Orbital elements
Apogee altitude
509.835 km
Perigee altitude
399.013 km
Semi-major axis
6,832.561 km
Eccentricity
0.00811
Inclination
98.1186°
RAAN
82.1244°
Arg. of periapsis
130.4013°
True anomaly
229.72251°
Mean anomaly
230.4343°
Eccentric anomaly
230.07795°
Mean motion
3.84298 °/min
Orbital period
93.68 mins
BSTAR
0.0019398
Loading maneuver chart data...
Computing Atmospheric mass density...

Documentation

Showing up to 5 results
|